PU5FJO-13 Weather Reports


Display with metric or nautical units.
time (UTC)temp
F
wind
direction
speed
MPH
gust
MPH
rain 1hr
in
rain 24hr
in
rain mn
in
humidity
%
barometer
mb
20260508023616 73 0.0 0.0 0.00 0.00 0.00 82 1007.9
20260508022616 73 0.0 0.0 0.00 0.00 0.00 82 1007.9
20260508021616 73 0.0 0.0 0.00 0.00 0.00 82 1008.2
20260508020616 73 0.0 0.0 0.00 0.00 0.00 82 1008.3
20260508015616 73 0.0 0.0 0.00 0.00 0.00 82 1008.3
20260508014616 73 0.0 0.0 0.00 0.00 0.00 82 1008.2
20260508013616 73 0.0 0.0 0.00 0.00 0.00 83 1008.3
20260508012616 73 0.0 0.0 0.00 0.00 0.00 82 1008.3
20260508011616 73 0.0 0.0 0.00 0.00 0.00 82 1008.3
20260508010616 73 0.0 0.0 0.00 0.00 0.00 82 1008.2
20260508005616 73 0.0 0.0 0.00 0.00 0.00 83 1008.4
20260508004616 73 0.0 0.0 0.00 0.00 0.00 83 1008.5
20260508003616 73 0.0 0.0 0.00 0.00 0.00 83 1008.6
20260508002616 73 0.0 0.0 0.00 0.00 0.00 83 1008.7
20260508001616 73 0.0 0.0 0.00 0.00 0.00 84 1008.8
20260508000616 73 0.0 0.0 0.00 0.00 0.00 84 1008.9
20260507235616 73 0.0 0.0 0.00 0.00 0.00 84 1009.0
20260507234616 73 0.0 0.0 0.00 0.00 0.00 83 1009.0
20260507233616 73 0.0 0.0 0.00 0.00 0.00 83 1008.9
20260507232616 73 0.0 0.0 0.00 0.00 0.00 84 1009.0
20260507231616 73 0.0 0.0 0.00 0.00 0.00 84 1009.2
20260507230616 73 0.0 0.0 0.00 0.00 0.00 84 1009.2
20260507225616 73 0.0 0.0 0.00 0.00 0.00 84 1009.1
20260507224616 73 0.0 0.0 0.00 0.00 0.00 83 1009.1
20260507223616 73 0.0 0.0 0.00 0.00 0.00 83 1009.2
20260507222616 73 0.0 0.0 0.00 0.00 0.00 83 1009.2
20260507221616 73 0.0 0.0 0.00 0.00 0.00 83 1009.0
20260507220616 73 0.0 0.0 0.00 0.00 0.00 83 1008.9
20260507215617 73 0.0 0.0 0.00 0.00 0.00 83 1008.8
20260507214616 73 0.0 0.0 0.00 0.00 0.00 82 1008.9
20260507213616 74 0.0 0.0 0.00 0.00 0.00 82 1008.9
20260507212616 74 0.0 0.0 0.00 0.00 0.00 81 1009.0
20260507211616 74 0.0 0.0 0.00 0.00 0.00 81 1008.9
20260507210616 74 0.0 0.0 0.00 0.00 0.00 81 1008.8
20260507205616 74 0.0 0.0 0.00 0.00 0.00 80 1008.6
20260507204616 74 0.0 0.0 0.00 0.00 0.00 80 1008.7
20260507203616 74 0.0 0.0 0.00 0.00 0.00 79 1008.4
20260507202615 75 0.0 0.0 0.00 0.00 0.00 78 1008.4
20260507201617 75 0.0 0.0 0.00 0.00 0.00 78 1008.5
20260507200616 75 0.0 0.0 0.00 0.00 0.00 76 1008.3
20260507195616 76 0.0 0.0 0.00 0.00 0.00 75 1008.3
20260507194615 76 0.0 0.0 0.00 0.00 0.00 75 1008.3
20260507193615 76 0.0 0.0 0.00 0.00 0.00 73 1008.1
20260507192615 76 0.0 0.0 0.00 0.00 0.00 75 1008.0
20260507191615 76 0.0 0.0 0.00 0.00 0.00 75 1008.2
20260507190615 76 0.0 0.0 0.00 0.00 0.00 74 1008.3
20260507185615 76 0.0 0.0 0.00 0.00 0.00 74 1008.4
20260507184615 76 0.0 0.0 0.00 0.00 0.00 74 1008.3
20260507183615 76 0.0 0.0 0.00 0.00 0.00 73 1008.2
20260507182615 77 0.0 0.0 0.00 0.00 0.00 71 1008.2
20260507181616 79 0.0 0.0 0.00 0.00 0.00 68 1008.1
20260507180615 79 0.0 0.0 0.00 0.00 0.00 67 1008.2
20260507175615 79 0.0 0.0 0.00 0.00 0.00 67 1008.3
20260507174615 78 0.0 0.0 0.00 0.00 0.00 68 1008.5
20260507173615 78 0.0 0.0 0.00 0.00 0.00 69 1008.5
20260507172615 78 0.0 0.0 0.00 0.00 0.00 69 1008.5
20260507171615 77 0.0 0.0 0.00 0.00 0.00 71 1008.7
20260507170615 77 0.0 0.0 0.00 0.00 0.00 70 1008.8
20260507165615 78 0.0 0.0 0.00 0.00 0.00 68 1009.0
20260507164615 78 0.0 0.0 0.00 0.00 0.00 69 1009.2
20260507163615 78 0.0 0.0 0.00 0.00 0.00 69 1009.5
20260507162615 77 0.0 0.0 0.00 0.00 0.00 70 1009.8
20260507161615 77 0.0 0.0 0.00 0.00 0.00 70 1010.0
20260507160615 78 0.0 0.0 0.00 0.00 0.00 68 1010.3
20260507155618 78 0.0 0.0 0.00 0.00 0.00 69 1010.3
20260507154615 77 0.0 0.0 0.00 0.00 0.00 70 1010.8
20260507153615 77 0.0 0.0 0.00 0.00 0.00 71 1011.1
20260507152615 76 0.0 0.0 0.00 0.00 0.00 72 1011.4
20260507151615 76 0.0 0.0 0.00 0.00 0.00 72 1011.6
20260507150618 77 0.0 0.0 0.00 0.00 0.00 70 1011.7
20260507145615 77 0.0 0.0 0.00 0.00 0.00 70 1011.8
20260507144615 77 0.0 0.0 0.00 0.00 0.00 70 1012.0
20260507143615 77 0.0 0.0 0.00 0.00 0.00 71 1012.2
20260507142615 76 0.0 0.0 0.00 0.00 0.00 72 1012.5
20260507141615 76 0.0 0.0 0.00 0.00 0.00 74 1012.5
20260507140615 75 0.0 0.0 0.00 0.00 0.00 76 1012.8
20260507135615 75 0.0 0.0 0.00 0.00 0.00 76 1012.9
20260507134615 76 0.0 0.0 0.00 0.00 0.00 74 1012.9
20260507133615 76 0.0 0.0 0.00 0.00 0.00 75 1013.1
20260507132615 75 0.0 0.0 0.00 0.00 0.00 76 1013.2
20260507131615 76 0.0 0.0 0.00 0.00 0.00 76 1013.6
20260507130615 75 0.0 0.0 0.00 0.00 0.00 77 1013.7
20260507125615 75 0.0 0.0 0.00 0.00 0.00 79 1013.8
20260507124615 74 0.0 0.0 0.00 0.00 0.00 81 1014.0
20260507123615 74 0.0 0.0 0.00 0.00 0.00 80 1014.0
20260507122615 74 0.0 0.0 0.00 0.00 0.00 80 1014.0
20260507121615 74 0.0 0.0 0.00 0.00 0.00 81 1014.3
20260507120615 73 0.0 0.0 0.00 0.00 0.00 82 1014.3
20260507115615 72 0.0 0.0 0.00 0.00 0.00 84 1014.3
20260507114615 73 0.0 0.0 0.00 0.00 0.00 83 1014.4
20260507113615 73 0.0 0.0 0.00 0.00 0.00 83 1014.5
20260507112615 72 0.0 0.0 0.00 0.00 0.00 85 1014.4
20260507111615 72 0.0 0.0 0.00 0.00 0.00 85 1014.4
20260507110615 72 0.0 0.0 0.00 0.00 0.00 86 1014.5
20260507105615 72 0.0 0.0 0.00 0.00 0.00 86 1014.4
20260507104615 72 0.0 0.0 0.00 0.00 0.00 86 1014.3
20260507103615 71 0.0 0.0 0.00 0.00 0.00 86 1014.3
20260507102615 71 0.0 0.0 0.00 0.00 0.00 86 1014.5
20260507101615 71 0.0 0.0 0.00 0.00 0.00 87 1014.4
20260507100615 71 0.0 0.0 0.00 0.00 0.00 88 1014.3
20260507095615 71 0.0 0.0 0.00 0.00 0.00 88 1014.2
20260507094615 71 0.0 0.0 0.00 0.00 0.00 88 1014.2
20260507093615 70 0.0 0.0 0.00 0.00 0.00 88 1014.4
20260507092615 71 0.0 0.0 0.00 0.00 0.00 88 1014.5
20260507091615 71 0.0 0.0 0.00 0.00 0.00 87 1014.4
20260507090615 71 0.0 0.0 0.00 0.00 0.00 87 1014.3
20260507085615 71 0.0 0.0 0.00 0.00 0.00 87 1014.1
20260507084615 71 0.0 0.0 0.00 0.00 0.00 87 1014.1
20260507083615 71 0.0 0.0 0.00 0.00 0.00 87 1014.1
20260507082615 71 0.0 0.0 0.00 0.00 0.00 87 1014.0
20260507081615 71 0.0 0.0 0.00 0.00 0.00 88 1013.9
20260507080615 71 0.0 0.0 0.00 0.00 0.00 87 1013.7
20260507075615 71 0.0 0.0 0.00 0.00 0.00 88 1013.8
20260507074615 71 0.0 0.0 0.00 0.00 0.00 88 1013.7
20260507073615 71 0.0 0.0 0.00 0.00 0.00 88 1013.8
20260507072615 71 0.0 0.0 0.00 0.00 0.00 88 1013.7
20260507071615 71 0.0 0.0 0.00 0.00 0.00 88 1013.6
20260507070615 71 0.0 0.0 0.00 0.00 0.00 88 1013.8
20260507065615 71 0.0 0.0 0.00 0.00 0.00 87 1013.9
20260507064615 71 0.0 0.0 0.00 0.00 0.00 87 1014.1
20260507063615 71 0.0 0.0 0.00 0.00 0.00 87 1014.2
20260507062615 71 0.0 0.0 0.00 0.00 0.00 88 1014.3
20260507061615 71 0.0 0.0 0.00 0.00 0.00 88 1014.5
20260507060615 71 0.0 0.0 0.00 0.00 0.00 88 1014.7
20260507055615 71 0.0 0.0 0.00 0.00 0.00 88 1014.6
20260507054615 70 0.0 0.0 0.00 0.00 0.00 89 1014.9
20260507053615 71 0.0 0.0 0.00 0.00 0.00 89 1015.0
20260507052615 71 0.0 0.0 0.00 0.00 0.00 88 1015.1
20260507051615 71 0.0 0.0 0.00 0.00 0.00 89 1015.2
20260507050615 71 0.0 0.0 0.00 0.00 0.00 88 1015.1
20260507045615 71 0.0 0.0 0.00 0.00 0.00 89 1015.2
20260507044615 71 0.0 0.0 0.00 0.00 0.00 88 1015.4
20260507043615 71 0.0 0.0 0.00 0.00 0.00 88 1015.4
20260507042615 71 0.0 0.0 0.00 0.00 0.00 89 1015.6
20260507041615 71 0.0 0.0 0.00 0.00 0.00 88 1015.5
20260507040615 71 0.0 0.0 0.00 0.00 0.00 89 1015.6
20260507035615 71 0.0 0.0 0.00 0.00 0.00 89 1015.8
20260507034615 71 0.0 0.0 0.00 0.00 0.00 88 1015.8
20260507033615 71 0.0 0.0 0.00 0.00 0.00 88 1015.8
20260507032615 71 0.0 0.0 0.00 0.00 0.00 88 1015.8
20260507031615 71 0.0 0.0 0.00 0.00 0.00 88 1015.9
20260507030615 71 0.0 0.0 0.00 0.00 0.00 89 1016.2
20260507025615 71 0.0 0.0 0.00 0.00 0.00 88 1016.4
20260507024615 71 0.0 0.0 0.00 0.00 0.00 88 1016.4